• In Netherlands
  • List of Countries
  • For 7 days
  • Water Temperature
  • Satellite Maps
  • Weather Map
  • Weather Widgets
  • user-avatar
    Login

    Hourly Weather Wlora

    Today, 21 January, Saturday

    Time Temperature Precipitation Wind Pressure Humidity
    00:00 +4°C° 0 mm 4 mps 772 mmHg 75%
    01:00 +4°C° 0 mm 4 mps 772 mmHg 74%
    02:00 +4°C° 0 mm 4 mps 772 mmHg 74%
    03:00 +4°C° 0 mm 4 mps 771 mmHg 73%
    04:00 +4°C° 0 mm 4 mps 771 mmHg 73%
    05:00 +4°C° 0 mm 4 mps 771 mmHg 72%
    06:00 +4°C° 0 mm 4 mps 771 mmHg 72%
    07:00 +4°C° 0 mm 3 mps 771 mmHg 71%
    08:00 +5°C° 0 mm 3 mps 771 mmHg 67%
    09:00 +8°C° 0 mm 3 mps 771 mmHg 62%
    10:00 +10°C° 0 mm 3 mps 771 mmHg 57%
    11:00 +10°C° 0 mm 2 mps 771 mmHg 55%
    12:00 +12°C° 0 mm 2 mps 771 mmHg 53%
    13:00 +13°C° 0 mm 1 mps 770 mmHg 50%
    14:00 +12°C° 0 mm 1 mps 770 mmHg 56%
    15:00 +12°C° 0 mm 1 mps 770 mmHg 62%
    16:00 +11°C° 0 mm 1 mps 770 mmHg 67%
    17:00 +10°C° 0 mm 1 mps 770 mmHg 70%
    18:00 +8°C° 0 mm 2 mps 770 mmHg 73%
    19:00 +7°C° 0 mm 2 mps 770 mmHg 76%
    20:00 +7°C° 0 mm 2 mps 770 mmHg 76%
    21:00 +7°C° 0 mm 2 mps 771 mmHg 76%
    22:00 +6°C° 0 mm 2 mps 771 mmHg 77%
    23:00 +5°C° 0 mm 3 mps 771 mmHg 76%

    Tomorrow, 22 January, Sunday

    Time Temperature Precipitation Wind Pressure Humidity
    00:00 +5°C° 0 mm 3 mps 771 mmHg 76%
    01:00 +4°C° 0 mm 3 mps 771 mmHg 76%
    02:00 +4°C° 0 mm 3 mps 771 mmHg 75%
    03:00 +4°C° 0 mm 3 mps 771 mmHg 74%
    04:00 +4°C° 0 mm 3 mps 770 mmHg 73%
    05:00 +4°C° 0 mm 3 mps 771 mmHg 73%
    06:00 +4°C° 0 mm 3 mps 771 mmHg 73%
    07:00 +4°C° 0 mm 3 mps 771 mmHg 73%
    08:00 +7°C° 0 mm 3 mps 771 mmHg 68%
    09:00 +7°C° 0 mm 4 mps 771 mmHg 64%
    10:00 +10°C° 0 mm 4 mps 771 mmHg 60%
    11:00 +11°C° 0 mm 3 mps 771 mmHg 58%
    12:00 +12°C° 0 mm 3 mps 770 mmHg 55%
    13:00 +13°C° 0 mm 3 mps 770 mmHg 52%
    14:00 +12°C° 0 mm 3 mps 770 mmHg 57%
    15:00 +12°C° 0 mm 2 mps 770 mmHg 62%
    16:00 +10°C° 0 mm 2 mps 770 mmHg 66%
    17:00 +9°C° 0 mm 3 mps 770 mmHg 69%
    18:00 +8°C° 0 mm 3 mps 770 mmHg 71%
    19:00 +7°C° 0 mm 3 mps 770 mmHg 74%
    20:00 +6°C° 0 mm 4 mps 770 mmHg 74%
    21:00 +5°C° 0 mm 4 mps 770 mmHg 75%
    22:00 +5°C° 0 mm 4 mps 770 mmHg 76%
    23:00 +5°C° 0 mm 4 mps 770 mmHg 74%

    Day after tomorrow, 23 January, Monday

    Time Temperature Precipitation Wind Pressure Humidity
    00:00 +5°C° 0 mm 5 mps 770 mmHg 72%
    01:00 +5°C° 0 mm 5 mps 770 mmHg 70%
    02:00 +3°C° 0 mm 5 mps 769 mmHg 70%
    03:00 +3°C° 0 mm 5 mps 769 mmHg 70%
    04:00 +3°C° 0 mm 5 mps 768 mmHg 71%
    05:00 +3°C° 0 mm 5 mps 768 mmHg 71%
    06:00 +3°C° 0 mm 5 mps 768 mmHg 71%
    07:00 +3°C° 0 mm 5 mps 767 mmHg 71%
    08:00 +5°C° 0 mm 5 mps 767 mmHg 67%
    09:00 +7°C° 0 mm 5 mps 767 mmHg 62%
    10:00 +9°C° 0 mm 5 mps 767 mmHg 58%
    11:00 +10°C° 0 mm 5 mps 766 mmHg 57%
    12:00 +12°C° 0 mm 5 mps 766 mmHg 55%
    13:00 +13°C° 0 mm 5 mps 766 mmHg 53%
    14:00 +12°C° 0.2 mm 5 mps 765 mmHg 58%
    15:00 +10°C° 0.2 mm 6 mps 765 mmHg 64%
    16:00 +9°C° 0.2 mm 6 mps 764 mmHg 69%
    17:00 +8°C° 1 mm 6 mps 764 mmHg 73%
    18:00 +7°C° 1 mm 6 mps 764 mmHg 77%
    19:00 +7°C° 1 mm 6 mps 763 mmHg 81%
    20:00 +5°C° 1.3 mm 6 mps 763 mmHg 83%
    21:00 +5°C° 1.3 mm 6 mps 763 mmHg 85%
    22:00 +5°C° 1.3 mm 6 mps 763 mmHg 88%
    23:00 +5°C° 1.4 mm 6 mps 763 mmHg 88%

    24 January, Tuesday

    Time Temperature Precipitation Wind Pressure Humidity
    00:00 +5°C° 1.4 mm 6 mps 762 mmHg 89%
    01:00 +5°C° 1.4 mm 7 mps 762 mmHg 90%
    02:00 +5°C° 0.6 mm 7 mps 762 mmHg 90%
    03:00 +5°C° 0.6 mm 6 mps 761 mmHg 89%
    04:00 +5°C° 0.6 mm 6 mps 761 mmHg 89%
    05:00 +5°C° 0.5 mm 6 mps 761 mmHg 89%
    06:00 +6°C° 0.5 mm 5 mps 761 mmHg 89%
    07:00 +6°C° 0.5 mm 5 mps 761 mmHg 89%
    08:00 +7°C° 0.1 mm 5 mps 761 mmHg 87%
    09:00 +7°C° 0.1 mm 4 mps 762 mmHg 86%
    10:00 +8°C° 0.1 mm 4 mps 762 mmHg 85%
    11:00 +9°C° 0.1 mm 3 mps 762 mmHg 84%
    12:00 +9°C° 0.1 mm 3 mps 761 mmHg 83%
    13:00 +10°C° 0.1 mm 2 mps 761 mmHg 82%
    14:00 +9°C° 0.1 mm 2 mps 761 mmHg 83%
    15:00 +9°C° 0.1 mm 2 mps 761 mmHg 83%
    16:00 +9°C° 0.1 mm 2 mps 761 mmHg 84%
    17:00 +9°C° 0 mm 2 mps 761 mmHg 84%
    18:00 +8°C° 0 mm 2 mps 761 mmHg 85%
    19:00 +8°C° 0 mm 2 mps 761 mmHg 85%
    20:00 +8°C° 0 mm 2 mps 762 mmHg 84%
    21:00 +7°C° 0 mm 2 mps 762 mmHg 84%
    22:00 +7°C° 0 mm 2 mps 762 mmHg 83%
    23:00 +7°C° 0 mm 2 mps 762 mmHg 83%

    25 January, Wednesday

    Time Temperature Precipitation Wind Pressure Humidity
    00:00 +7°C° 0 mm 2 mps 762 mmHg 83%
    01:00 +7°C° 0 mm 3 mps 762 mmHg 83%
    02:00 +7°C° 0 mm 3 mps 762 mmHg 83%
    03:00 +7°C° 0 mm 3 mps 762 mmHg 83%
    04:00 +7°C° 0 mm 3 mps 762 mmHg 83%
    05:00 +5°C° 0 mm 3 mps 762 mmHg 84%
    06:00 +5°C° 0 mm 3 mps 763 mmHg 84%
    07:00 +5°C° 0 mm 3 mps 763 mmHg 84%
    08:00 +7°C° 0 mm 3 mps 764 mmHg 80%
    09:00 +8°C° 0 mm 3 mps 764 mmHg 77%
    10:00 +9°C° 0 mm 3 mps 764 mmHg 73%
    11:00 +10°C° 0 mm 3 mps 764 mmHg 71%
    12:00 +10°C° 0 mm 3 mps 764 mmHg 70%
    13:00 +11°C° 0 mm 3 mps 764 mmHg 68%
    14:00 +11°C° 0 mm 3 mps 764 mmHg 71%
    15:00 +10°C° 0 mm 3 mps 764 mmHg 74%
    16:00 +10°C° 0 mm 4 mps 764 mmHg 77%
    17:00 +8°C° 0 mm 4 mps 765 mmHg 79%
    18:00 +7°C° 0 mm 4 mps 765 mmHg 80%
    19:00 +6°C° 0 mm 4 mps 765 mmHg 82%
    20:00 +6°C° 0 mm 4 mps 766 mmHg 82%
    21:00 +6°C° 0 mm 4 mps 766 mmHg 82%
    22:00 +5°C° 0 mm 4 mps 766 mmHg 82%
    23:00 +5°C° 0 mm 4 mps 766 mmHg 81%

    26 January, Thursday

    Time Temperature Precipitation Wind Pressure Humidity
    00:00 +5°C° 0 mm 4 mps 766 mmHg 81%
    01:00 +5°C° 0 mm 4 mps 766 mmHg 80%
    02:00 +5°C° 0 mm 4 mps 766 mmHg 80%
    03:00 +5°C° 0 mm 4 mps 766 mmHg 80%
    04:00 +5°C° 0 mm 4 mps 766 mmHg 80%
    05:00 +4°C° 0.1 mm 4 mps 766 mmHg 81%
    06:00 +4°C° 0.1 mm 4 mps 766 mmHg 82%
    07:00 +4°C° 0.1 mm 4 mps 766 mmHg 83%
    08:00 +4°C° 0 mm 4 mps 766 mmHg 80%
    09:00 +5°C° 0 mm 4 mps 766 mmHg 77%
    10:00 +6°C° 0 mm 4 mps 766 mmHg 74%
    11:00 +6°C° 0.1 mm 4 mps 766 mmHg 73%
    12:00 +7°C° 0.1 mm 4 mps 766 mmHg 72%
    13:00 +7°C° 0.1 mm 4 mps 766 mmHg 71%
    14:00 +7°C° 0 mm 4 mps 766 mmHg 72%
    15:00 +7°C° 0 mm 5 mps 766 mmHg 73%
    16:00 +6°C° 0 mm 5 mps 766 mmHg 74%
    17:00 +6°C° 0 mm 5 mps 766 mmHg 76%
    18:00 +5°C° 0 mm 5 mps 766 mmHg 78%
    19:00 +4°C° 0 mm 4 mps 767 mmHg 80%
    20:00 +3°C° 0 mm 5 mps 767 mmHg 80%
    21:00 +2°C° 0 mm 5 mps 767 mmHg 80%
    22:00 +1°C° 0 mm 5 mps 767 mmHg 80%
    23:00 +1°C° 0 mm 5 mps 768 mmHg 80%
    Show more